EW9135 Weather Reports


time (UTC)temp
C
wind
direction
speed
KPH
gust
KPH
rain 1hr
cm
rain 24hr
cm
rain mn
cm
humidity
%
barometer
mb
20260904205843 25 292 0.0 3.2 0.00 0.00 0.00 10 1020.7
20260904205337 25 173 0.0 1.6 0.00 0.00 0.00 11 1020.4
20260904204832 25 350 0.0 3.2 0.00 0.00 0.00 10 1020.4
20260904204326 25 296 0.0 3.2 0.00 0.00 0.00 11 1020.4
20260904203822 24 262 0.0 3.2 0.00 0.00 0.00 13 1020.7
20260904203817 24 161 0.0 3.2 0.00 0.00 0.00 12 1020.7
20260904202809 25 210 0.0 3.2 0.00 0.00 0.00 13 1020.4
20260904202306 25 275 0.0 3.2 0.00 0.00 0.00 11 1020.7
20260904201758 25 268 0.0 3.2 0.00 0.00 0.00 13 1020.4
20260904201253 25 54 0.0 3.2 0.00 0.00 0.00 13 1020.7
20260904200748 25 81 0.0 3.2 0.00 0.00 0.00 16 1020.7
20260904200742 25 100 0.0 3.2 0.00 0.00 0.00 13 1020.7
20260904195737 25 217 0.0 0.0 0.00 0.00 0.00 11 1020.7
20260904195231 25 95 0.0 1.6 0.00 0.00 0.00 12 1020.7
20260904194727 25 249 0.0 1.6 0.00 0.00 0.00 12 1020.7
20260904194721 25 184 0.0 1.6 0.00 0.00 0.00 11 1020.7
20260904193714 25 275 0.0 1.6 0.00 0.00 0.00 11 1021.1
20260904193210 25 278 0.0 0.0 0.00 0.00 0.00 11 1020.7
20260904193205 25 323 0.0 0.0 0.00 0.00 0.00 12 1020.7
20260904192158 24 303 0.0 1.6 0.00 0.00 0.00 16 1021.1
20260904191652 24 294 0.0 1.6 0.00 0.00 0.00 13 1021.1
20260904191147 24 295 0.0 0.0 0.00 0.00 0.00 10 1021.1
20260904190641 24 306 0.0 0.0 0.00 0.00 0.00 12 1021.1
20260904190135 24 72 0.0 0.0 0.00 0.00 0.00 16 1021.1
20260904185631 23 227 0.0 0.0 0.00 0.00 0.00 16 1020.7
20260904185625 23 48 0.0 0.0 0.00 0.00 0.00 15 1021.1
20260904184619 23 224 0.0 0.0 0.00 0.00 0.00 12 1021.4
20260904184113 23 229 0.0 3.2 0.00 0.00 0.00 13 1021.4
20260904183607 23 322 0.0 3.2 0.00 0.00 0.00 16 1021.1
20260904183101 23 241 0.0 3.2 0.00 0.00 0.00 16 1021.1
20260904182558 23 135 0.0 3.2 0.00 0.00 0.00 17 1021.1
20260904182051 23 284 0.0 1.6 0.00 0.00 0.00 17 1021.4
20260904181545 23 112 0.0 1.6 0.00 0.00 0.00 16 1021.1
20260904181041 23 316 0.0 3.2 0.00 0.00 0.00 17 1021.4
20260904180534 23 228 0.0 3.2 0.00 0.00 0.00 21 1021.4
20260904180030 23 44 0.0 1.6 0.00 0.00 0.00 18 1021.8
20260904180024 22 247 0.0 1.6 0.00 0.00 0.00 21 1021.4
20260904175018 22 231 0.0 1.6 0.00 0.00 0.00 21 1021.4
20260904174512 22 302 0.0 0.0 0.00 0.00 0.00 19 1021.4
20260904174007 22 226 0.0 0.0 0.00 0.00 0.00 19 1021.4
20260904173502 22 194 0.0 0.0 0.00 0.00 0.00 19 1021.4
20260904173457 22 237 0.0 1.6 0.00 0.00 0.00 18 1021.4
20260904172450 22 283 0.0 1.6 0.00 0.00 0.00 19 1021.1
20260904171945 22 206 0.0 1.6 0.00 0.00 0.00 19 1021.1
20260904171439 22 347 0.0 0.0 0.00 0.00 0.00 20 1021.4
20260904170933 22 175 0.0 0.0 0.00 0.00 0.00 21 1021.1
20260904170429 22 68 0.0 0.0 0.00 0.00 0.00 18 1021.4
20260904170423 22 258 0.0 0.0 0.00 0.00 0.00 19 1021.4
20260904165417 21 302 0.0 0.0 0.00 0.00 0.00 19 1021.1
20260904164913 21 4 0.0 0.0 0.00 0.00 0.00 20 1021.1
20260904164907 21 264 0.0 0.0 0.00 0.00 0.00 19 1021.1
20260904163900 21 223 0.0 0.0 0.00 0.00 0.00 19 1021.1
20260904163354 21 267 0.0 0.0 0.00 0.00 0.00 20 1021.1
20260904162849 21 309 0.0 0.0 0.00 0.00 0.00 20 1020.7
20260904162344 21 204 0.0 0.0 0.00 0.00 0.00 20 1020.7
20260904161839 21 174 0.0 0.0 0.00 0.00 0.00 19 1020.7
20260904161833 21 240 0.0 0.0 0.00 0.00 0.00 20 1020.7
20260904160827 20 206 0.0 0.0 0.00 0.00 0.00 20 1020.7
20260904160322 20 202 0.0 0.0 0.00 0.00 0.00 20 1020.7
20260904155816 20 196 0.0 0.0 0.00 0.00 0.00 21 1020.7
20260904155310 20 244 0.0 0.0 0.00 0.00 0.00 21 1020.7
20260904154805 20 203 0.0 0.0 0.00 0.00 0.00 21 1020.7
20260904154300 20 231 0.0 0.0 0.00 0.00 0.00 23 1020.7
20260904153754 20 259 0.0 0.0 0.00 0.00 0.00 24 1020.7
20260904153248 19 209 0.0 0.0 0.00 0.00 0.00 22 1020.7
20260904152743 19 228 0.0 0.0 0.00 0.00 0.00 22 1020.7
20260904152238 19 233 0.0 0.0 0.00 0.00 0.00 23 1021.1
20260904151733 18 198 0.0 0.0 0.00 0.00 0.00 28 1020.7
20260904151226 18 218 0.0 0.0 0.00 0.00 0.00 31 1020.7
20260904150721 18 215 0.0 0.0 0.00 0.00 0.00 30 1020.7
20260904150216 17 202 0.0 0.0 0.00 0.00 0.00 28 1020.7
20260904145709 17 193 0.0 0.0 0.00 0.00 0.00 25 1020.7
20260904145204 16 219 0.0 0.0 0.00 0.00 0.00 31 1020.7
20260904144659 16 197 0.0 0.0 0.00 0.00 0.00 32 1020.4
20260904144245 15 140 0.0 0.0 0.00 0.00 0.00 33 1020.4
20260904144154 15 202 0.0 0.0 0.00 0.00 0.00 32 1020.7
20260904144139 15 189 0.0 0.0 0.00 0.00 0.00 35 1020.4
20260904143243 15 188 0.0 0.0 0.00 0.00 0.00 35 1020.4
20260904142131 15 206 0.0 0.0 0.00 0.00 0.00 37 1020.1
20260904141622 15 233 0.0 0.0 0.00 0.00 0.00 36 1019.7
20260904140615 15 192 0.0 0.0 0.00 0.00 0.00 36 1020.1
20260904140109 15 182 0.0 0.0 0.00 0.00 0.00 36 1020.1
20260904135603 15 124 0.0 0.0 0.00 0.00 0.00 36 1019.7
20260904135100 15 214 0.0 0.0 0.00 0.00 0.00 36 1019.7
20260904135054 15 247 0.0 0.0 0.00 0.00 0.00 36 1019.7
20260904134047 15 219 0.0 0.0 0.00 0.00 0.00 36 1019.7
20260904133542 15 256 0.0 0.0 0.00 0.00 0.00 36 1019.7
20260904133036 15 268 0.0 0.0 0.00 0.00 0.00 36 1019.4
20260904132530 15 210 0.0 0.0 0.00 0.00 0.00 36 1019.7
20260904132025 15 205 0.0 0.0 0.00 0.00 0.00 36 1019.7
20260904131520 15 250 0.0 0.0 0.00 0.00 0.00 36 1019.7
20260904131014 15 238 0.0 0.0 0.00 0.00 0.00 36 1019.4
20260904131009 15 230 0.0 0.0 0.00 0.00 0.00 35 1019.4
20260904130005 15 213 0.0 0.0 0.00 0.00 0.00 35 1019.4
20260904125457 15 215 0.0 0.0 0.00 0.00 0.00 35 1019.4
20260904124952 15 248 0.0 0.0 0.00 0.00 0.00 35 1019.1
20260904124446 15 252 0.0 0.0 0.00 0.00 0.00 36 1019.1
20260904123942 15 255 0.0 0.0 0.00 0.00 0.00 36 1019.1
20260904123936 16 238 0.0 0.0 0.00 0.00 0.00 36 1019.4
20260904122929 16 236 0.0 0.0 0.00 0.00 0.00 36 1019.1
20260904122428 16 250 0.0 0.0 0.00 0.00 0.00 35 1019.4
20260904122420 16 238 0.0 0.0 0.00 0.00 0.00 34 1019.4
20260904121413 16 274 0.0 0.0 0.00 0.00 0.00 34 1019.4
20260904121408 16 248 0.0 0.0 0.00 0.00 0.00 34 1019.4
20260904120403 16 247 0.0 0.0 0.00 0.00 0.00 34 1019.4
20260904115857 16 233 0.0 0.0 0.00 0.00 0.00 33 1019.1
20260904115351 16 205 0.0 0.0 0.00 0.00 0.00 33 1019.4
20260904114846 17 273 0.0 0.0 0.00 0.00 0.00 33 1019.4
20260904114340 17 246 0.0 0.0 0.00 0.00 0.00 33 1019.4
20260904113834 17 238 0.0 0.0 0.00 0.00 0.00 32 1019.4
20260904113329 17 229 0.0 0.0 0.00 0.00 0.00 33 1019.1
20260904113324 17 228 0.0 0.0 0.00 0.00 0.00 33 1019.4
20260904112318 17 222 0.0 0.0 0.00 0.00 0.00 33 1019.4
20260904111813 17 233 0.0 0.0 0.00 0.00 0.00 33 1019.4
20260904111307 17 281 0.0 0.0 0.00 0.00 0.00 32 1019.7
20260904110803 17 254 0.0 0.0 0.00 0.00 0.00 32 1019.4
20260904110758 17 198 0.0 0.0 0.00 0.00 0.00 32 1019.4
20260904105751 17 320 0.0 0.0 0.00 0.00 0.00 32 1019.4
20260904105245 17 248 0.0 0.0 0.00 0.00 0.00 32 1019.4
20260904104739 17 247 0.0 0.0 0.00 0.00 0.00 32 1019.4
20260904104233 17 274 0.0 0.0 0.00 0.00 0.00 32 1019.1
20260904103728 17 309 0.0 0.0 0.00 0.00 0.00 32 1019.1
20260904103223 17 298 0.0 0.0 0.00 0.00 0.00 32 1019.1
20260904102717 17 346 0.0 0.0 0.00 0.00 0.00 32 1019.1
20260904102212 17 247 0.0 0.0 0.00 0.00 0.00 32 1019.1
20260904101705 17 250 0.0 0.0 0.00 0.00 0.00 32 1019.1
20260904101201 17 296 0.0 0.0 0.00 0.00 0.00 32 1019.1
20260904100655 17 204 0.0 0.0 0.00 0.00 0.00 32 1019.1
20260904100149 17 229 0.0 0.0 0.00 0.00 0.00 32 1019.1
20260904095644 17 349 0.0 0.0 0.00 0.00 0.00 32 1019.1
20260904095139 17 234 0.0 0.0 0.00 0.00 0.00 32 1018.7
20260904094633 17 284 0.0 0.0 0.00 0.00 0.00 32 1018.7
20260904094127 17 207 0.0 0.0 0.00 0.00 0.00 33 1019.1
20260904093624 17 248 0.0 0.0 0.00 0.00 0.00 33 1019.1
20260904093618 17 249 0.0 0.0 0.00 0.00 0.00 33 1018.7
20260904092611 17 272 0.0 0.0 0.00 0.00 0.00 33 1019.1
20260904092105 17 192 0.0 0.0 0.00 0.00 0.00 33 1019.1
20260904091600 17 237 0.0 0.0 0.00 0.00 0.00 33 1019.1
20260904091054 17 229 0.0 0.0 0.00 0.00 0.00 34 1018.7
20260904090550 17 272 0.0 0.0 0.00 0.00 0.00 34 1019.1
20260904090043 17 191 0.0 0.0 0.00 0.00 0.00 34 1019.1
20260904085538 17 282 0.0 0.0 0.00 0.00 0.00 34 1019.1
20260904085032 17 245 0.0 0.0 0.00 0.00 0.00 33 1018.7
20260904084527 17 273 0.0 0.0 0.00 0.00 0.00 33 1018.7
20260904084022 17 284 0.0 0.0 0.00 0.00 0.00 33 1018.7
20260904083516 17 278 0.0 0.0 0.00 0.00 0.00 33 1019.1
20260904083010 17 214 0.0 0.0 0.00 0.00 0.00 33 1019.1
20260904083005 18 228 0.0 0.0 0.00 0.00 0.00 33 1018.7
20260904081959 18 20 0.0 0.0 0.00 0.00 0.00 34 1019.1
20260904081454 18 316 0.0 0.0 0.00 0.00 0.00 34 1019.1
20260904080947 18 319 0.0 0.0 0.00 0.00 0.00 34 1019.1
20260904080443 18 232 0.0 0.0 0.00 0.00 0.00 33 1019.4
20260904080434 18 226 0.0 0.0 0.00 0.00 0.00 33 1019.1
20260904080040 18 210 0.0 0.0 0.00 0.00 0.00 33 1019.1
20260904074926 18 277 0.0 0.0 0.00 0.00 0.00 33 1019.1
20260904074422 18 242 0.0 0.0 0.00 0.00 0.00 33 1019.1
20260904073915 18 238 0.0 0.0 0.00 0.00 0.00 33 1019.1
20260904073910 18 282 0.0 0.0 0.00 0.00 0.00 32 1018.7
20260904072904 18 254 0.0 0.0 0.00 0.00 0.00 33 1018.7
20260904072858 18 253 0.0 0.0 0.00 0.00 0.00 33 1018.7
20260904071851 18 224 0.0 0.0 0.00 0.00 0.00 33 1018.7
20260904071346 18 291 0.0 0.0 0.00 0.00 0.00 33 1018.7
20260904070840 18 227 0.0 0.0 0.00 0.00 0.00 33 1018.7
20260904070334 18 209 0.0 0.0 0.00 0.00 0.00 33 1018.7
20260904065830 17 280 0.0 0.0 0.00 0.00 0.00 33 1018.7
20260904065823 17 237 0.0 0.0 0.00 0.00 0.00 34 1019.1
20260904064817 17 248 0.0 0.0 0.00 0.00 0.00 33 1018.7
20260904064314 17 255 0.0 0.0 0.00 0.00 0.00 34 1018.7
20260904063805 17 201 0.0 0.0 0.00 0.00 0.00 34 1018.7
20260904063301 17 259 0.0 0.0 0.00 0.00 0.00 34 1018.7
20260904063256 17 276 0.0 0.0 0.00 0.00 0.00 34 1018.7
20260904062248 17 273 0.0 0.0 0.00 0.00 0.00 35 1018.7
20260904061742 17 323 0.0 0.0 0.00 0.00 0.00 36 1018.7
20260904061237 17 293 0.0 0.0 0.00 0.00 0.00 37 1019.1
20260904060730 17 226 0.0 1.6 0.00 0.00 0.00 38 1018.7
20260904060224 17 226 0.0 1.6 0.00 0.00 0.00 38 1018.7
20260904055720 18 132 0.0 1.6 0.00 0.00 0.00 38 1018.7
20260904055714 18 351 0.0 1.6 0.00 0.00 0.00 38 1018.7
20260904054710 18 239 0.0 1.6 0.00 0.00 0.00 38 1018.7
20260904054705 18 161 0.0 1.6 0.00 0.00 0.00 38 1019.1
20260904053655 18 245 0.0 3.2 0.00 0.00 0.00 38 1018.7
20260904053150 18 299 0.0 3.2 0.00 0.00 0.00 38 1019.1
20260904052646 18 291 0.0 0.0 0.00 0.00 0.00 39 1018.7
20260904052139 18 279 0.0 0.0 0.00 0.00 0.00 37 1018.7
20260904051632 18 296 0.0 1.6 0.00 0.00 0.00 37 1018.7
20260904051128 18 282 0.0 1.6 0.00 0.00 0.00 37 1018.7
20260904050621 18 131 0.0 0.0 0.00 0.00 0.00 37 1018.7
20260904050117 18 256 0.0 0.0 0.00 0.00 0.00 37 1018.7
20260904050111 18 167 0.0 0.0 0.00 0.00 0.00 37 1018.7
20260904045103 18 229 0.0 0.0 0.00 0.00 0.00 37 1018.7
20260904045058 18 285 0.0 0.0 0.00 0.00 0.00 37 1018.7
20260904044052 18 239 0.0 0.0 0.00 0.00 0.00 37 1018.7
20260904043546 18 298 0.0 0.0 0.00 0.00 0.00 37 1018.7
20260904043043 18 305 0.0 0.0 0.00 0.00 0.00 37 1018.7
20260904043038 18 344 0.0 0.0 0.00 0.00 0.00 37 1018.7
20260904042028 18 238 0.0 0.0 0.00 0.00 0.00 37 1018.7
20260904041523 18 209 0.0 0.0 0.00 0.00 0.00 37 1018.7
20260904041018 18 267 0.0 0.0 0.00 0.00 0.00 37 1018.7
20260904040511 19 218 0.0 0.0 0.00 0.00 0.00 36 1018.7
20260904040005 19 216 0.0 0.0 0.00 0.00 0.00 36 1018.7
20260904035501 19 202 0.0 0.0 0.00 0.00 0.00 36 1018.7
20260904034955 19 250 0.0 0.0 0.00 0.00 0.00 36 1018.7
20260904034448 20 218 0.0 0.0 0.00 0.00 0.00 36 1018.7
20260904033943 20 302 0.0 0.0 0.00 0.00 0.00 36 1018.7
20260904033436 20 49 0.0 0.0 0.00 0.00 0.00 36 1018.4
20260904032931 20 80 0.0 0.0 0.00 0.00 0.00 34 1018.4
20260904032426 20 232 0.0 0.0 0.00 0.00 0.00 34 1018.0
20260904031919 21 269 0.0 1.6 0.00 0.00 0.00 34 1018.4
20260904031415 21 230 0.0 1.6 0.00 0.00 0.00 34 1018.0
20260904031409 21 284 0.0 1.6 0.00 0.00 0.00 33 1018.0
20260904030402 21 233 0.0 1.6 0.00 0.00 0.00 32 1018.0
20260904025856 21 208 0.0 0.0 0.00 0.00 0.00 32 1018.0
20260904025351 21 241 0.0 0.0 0.00 0.00 0.00 32 1018.0
20260904024845 21 160 0.0 0.0 0.00 0.00 0.00 31 1018.0
20260904024339 21 251 0.0 0.0 0.00 0.00 0.00 30 1018.0
20260904023834 21 194 0.0 0.0 0.00 0.00 0.00 31 1018.0
20260904023327 21 281 0.0 0.0 0.00 0.00 0.00 30 1018.0
20260904022822 22 243 0.0 0.0 0.00 0.00 0.00 30 1018.0
20260904022317 22 207 0.0 0.0 0.00 0.00 0.00 30 1018.0
20260904021809 22 226 0.0 0.0 0.00 0.00 0.00 29 1018.0
20260904021304 22 312 0.0 0.0 0.00 0.00 0.00 28 1018.0
20260904020759 22 204 0.0 0.0 0.00 0.00 0.00 28 1018.0
20260904020252 22 262 0.0 0.0 0.00 0.00 0.00 28 1018.0
20260904015747 22 232 0.0 0.0 0.00 0.00 0.00 28 1018.0
20260904015242 22 257 0.0 0.0 0.00 0.00 0.00 28 1018.0
20260904014735 22 281 0.0 0.0 0.00 0.00 0.00 28 1018.4
20260904014228 22 228 0.0 0.0 0.00 0.00 0.00 28 1018.0
20260904013724 22 245 0.0 0.0 0.00 0.00 0.00 28 1018.0
20260904013217 22 267 0.0 0.0 0.00 0.00 0.00 27 1018.0
20260904012712 22 308 0.0 0.0 0.00 0.00 0.00 27 1018.4
20260904012206 22 296 0.0 1.6 0.00 0.00 0.00 26 1018.4
20260904011700 22 316 0.0 1.6 0.00 0.00 0.00 26 1018.0
20260904011154 23 286 0.0 1.6 0.00 0.00 0.00 26 1018.0
20260904010650 23 169 0.0 1.6 0.00 0.00 0.00 26 1018.0
20260904010643 23 215 0.0 1.6 0.00 0.00 0.00 25 1018.4
20260904005638 23 221 0.0 3.2 0.00 0.00 0.00 25 1018.4
20260904005132 23 307 0.0 3.2 0.00 0.00 0.00 25 1018.0
20260904004625 23 230 0.0 1.6 0.00 0.00 0.00 25 1018.4
20260904004121 23 11 0.0 1.6 0.00 0.00 0.00 25 1018.0
20260904004116 23 303 0.0 1.6 0.00 0.00 0.00 24 1018.0
20260904003108 23 218 0.0 1.6 0.00 0.00 0.00 24 1018.4
20260904002601 24 344 0.0 1.6 0.00 0.00 0.00 23 1018.0
20260904002057 24 224 0.0 1.6 0.00 0.00 0.00 23 1018.4
20260904001551 24 328 0.0 1.6 0.00 0.00 0.00 23 1018.4
20260904001545 24 337 0.0 1.6 0.00 0.00 0.00 23 1018.0
20260904000540 24 40 0.0 1.6 0.00 0.00 0.00 23 1018.4
20260904000032 25 253 0.0 0.0 0.00 0.00 0.00 22 1018.4
20260903235527 25 58 0.0 0.0 0.00 0.00 0.00 22 1018.4
20260903235022 25 229 0.0 0.0 0.00 0.00 0.00 22 1018.4
20260903234519 25 255 0.0 1.6 0.00 0.00 0.00 22 1018.4
20260903234009 25 249 0.0 1.6 0.00 0.00 0.00 22 1018.4
20260903233505 25 258 0.0 0.0 0.00 0.00 0.00 21 1018.4
20260903232959 25 278 0.0 0.0 0.00 0.00 0.00 20 1018.4
20260903232452 25 232 0.0 0.0 0.00 0.00 0.00 20 1018.4
20260903231947 25 295 0.0 1.6 0.00 0.00 0.00 19 1018.7
20260903231442 25 268 0.0 1.6 0.00 0.00 0.00 20 1018.7
20260903231436 25 245 0.0 1.6 0.00 0.00 0.00 19 1018.4
20260903230430 26 306 0.0 1.6 0.00 0.00 0.00 20 1018.7
20260903225923 26 140 0.0 0.0 0.00 0.00 0.00 21 1018.7
20260903225418 26 202 0.0 0.0 0.00 0.00 0.00 20 1018.7
20260903224912 27 233 0.0 1.6 0.00 0.00 0.00 20 1019.1
20260903224406 27 220 0.0 1.6 0.00 0.00 0.00 20 1019.1
20260903223859 27 224 0.0 1.6 0.00 0.00 0.00 14 1019.1
20260903223355 26 278 0.0 1.6 0.00 0.00 0.00 12 1019.1
20260903223349 26 254 0.0 1.6 0.00 0.00 0.00 12 1019.1
20260903222343 26 287 0.0 1.6 0.00 0.00 0.00 17 1019.1
20260903221838 26 38 0.0 0.0 0.00 0.00 0.00 20 1019.1
20260903221331 26 265 0.0 1.6 0.00 0.00 0.00 18 1019.4
20260903220825 26 260 0.0 1.6 0.00 0.00 0.00 17 1019.4
20260903220320 25 298 0.0 0.0 0.00 0.00 0.00 14 1019.7
20260903215813 25 291 0.0 0.0 0.00 0.00 0.00 18 1019.4
20260903215307 24 181 0.0 0.0 0.00 0.00 0.00 19 1019.7
20260903214803 24 220 0.0 0.0 0.00 0.00 0.00 20 1019.4
20260903214256 23 221 0.0 0.0 0.00 0.00 0.00 20 1019.4
20260903213750 23 304 0.0 0.0 0.00 0.00 0.00 21 1019.7
20260903213245 23 219 0.0 1.6 0.00 0.00 0.00 23 1019.7
20260903212739 23 286 0.0 1.6 0.00 0.00 0.00 23 1019.7
20260903212232 23 244 0.0 1.6 0.00 0.00 0.00 24 1019.7
20260903211728 24 285 0.0 1.6 0.00 0.00 0.00 24 1019.7
20260903211221 24 302 0.0 0.0 0.00 0.00 0.00 23 1019.7
20260903210715 24 255 0.0 0.0 0.00 0.00 0.00 23 1019.7
20260903210210 25 19 0.0 1.6 0.00 0.00 0.00 22 1019.7